Location: Villingen
(48.0639°N, 8.4609°E)
Time: 15:51:59
(UTC+01:00)

ISS - Pass Details

Date: 13 November 2017
Orbit: 402 x 407 km, 51.6° (Epoch: 24 November)

Event Time Altitude Azimuth Distance (km) Brightness Sun altitude
Exits shadow 05:02:31 32° 72° (ENE) 714 -2.1 -24.6°
Drops below altitude 10° 05:04:32 10° 91° (E) 1,455 0.1 -24.2°
Sets 05:06:39 0° 97° (E) 2,313 1.4 -23.9°
